FW9150 Weather Reports


time (UTC)temp
F
wind
direction
speed
knots
gust
knots
rain 1hr
in
rain 24hr
in
rain mn
in
humidity
%
barometer
mb
20260905075911 48 315 0.0 0.0 0.00 0.00 0.00 71 1021.1
20260905074912 48 180 0.0 0.0 0.00 0.00 0.00 73 1021.1
20260905073929 48 180 0.0 0.0 0.00 0.00 0.00 73 1021.1
20260905073014 48 180 0.0 0.0 0.00 0.00 0.00 72 1021.1
20260905072015 48 180 0.0 0.0 0.00 0.00 0.00 73 1021.1
20260905071014 48 180 0.0 0.0 0.00 0.00 0.00 73 1021.1
20260905065112 48 180 0.0 0.0 0.00 0.00 0.00 73 1020.8
20260905064115 48 180 0.0 0.0 0.00 0.00 0.00 74 1020.9
20260905062212 48 180 0.0 0.0 0.00 0.00 0.00 73 1020.9
20260905061213 48 180 0.0 0.0 0.00 0.00 0.00 74 1020.9
20260905060212 48 180 0.0 0.0 0.00 0.00 0.00 72 1020.9
20260905055230 49 180 0.0 0.0 0.00 0.00 0.00 72 1020.9
20260905054315 49 180 0.0 0.0 0.00 0.00 0.00 73 1020.9
20260905053412 49 180 0.0 0.0 0.00 0.00 0.00 73 1020.9
20260905052431 48 180 0.0 0.0 0.00 0.00 0.00 74 1020.9
20260905051415 48 180 0.0 0.0 0.00 0.00 0.00 73 1021.1
20260905050415 48 180 0.0 0.0 0.00 0.00 0.00 73 1021.0
20260905045412 48 180 0.0 0.0 0.00 0.00 0.00 73 1020.9
20260905044429 48 180 0.0 0.0 0.00 0.00 0.00 73 1020.9
20260905042513 48 180 0.0 0.0 0.00 0.00 0.00 73 1020.7
20260905041514 48 180 0.0 0.0 0.00 0.00 0.00 72 1020.7
20260905040612 48 180 0.0 0.0 0.00 0.00 0.00 71 1020.6
20260905034612 49 180 0.0 0.0 0.00 0.00 0.00 70 1020.3
20260905033612 49 180 0.0 0.0 0.00 0.00 0.00 68 1020.3
20260905032613 50 180 0.0 0.0 0.00 0.00 0.00 69 1020.3
20260905031613 50 180 0.0 0.0 0.00 0.00 0.00 69 1020.1
20260905030712 50 180 0.0 0.0 0.00 0.00 0.00 67 1019.9
20260905025712 51 180 0.0 0.0 0.00 0.00 0.00 65 1020.0
20260905024713 52 180 0.0 0.0 0.00 0.00 0.00 64 1019.9
20260905023813 52 180 0.0 0.0 0.00 0.00 0.00 64 1020.0
20260905020814 54 180 0.0 0.0 0.00 0.00 0.00 60 1020.0
20260905015812 54 180 0.0 0.0 0.00 0.00 0.00 60 1020.3
20260905013819 55 180 0.0 0.0 0.00 0.00 0.00 60 1020.0
20260905012917 55 225 0.0 0.0 0.00 0.00 0.00 60 1020.0
20260905011918 55 180 0.0 0.0 0.00 0.00 0.00 59 1020.1
20260905010917 55 180 0.0 0.9 0.00 0.00 0.00 60 1020.1
20260905005917 56 225 0.0 0.0 0.00 0.00 0.00 61 1020.1
20260905004918 56 157 0.0 1.7 0.00 0.00 0.00 61 1020.0
20260905002917 56 189 0.0 0.0 0.00 0.00 0.00 64 1020.3
20260905001919 56 180 0.0 0.0 0.00 0.00 0.00 64 1020.2
20260905000916 56 172 0.0 0.9 0.00 0.00 0.00 64 1020.3
20260904235919 56 199 1.7 2.6 0.00 0.00 0.00 66 1020.3
20260904234918 56 157 1.7 3.5 0.00 0.00 0.00 67 1020.2
20260904233016 56 225 0.9 2.6 0.00 0.00 0.00 66 1020.3
20260904232017 56 166 0.9 1.7 0.00 0.00 0.00 65 1020.1
20260904231116 56 157 1.7 3.5 0.00 0.00 0.00 67 1020.2
20260904230119 56 254 0.0 0.0 0.00 0.00 0.00 67 1020.1
20260904225216 56 225 0.0 1.7 0.00 0.00 0.00 69 1020.3
20260904223319 56 205 0.0 1.7 0.00 0.00 0.00 70 1020.3
20260904222318 56 242 1.7 3.5 0.00 0.00 0.00 70 1020.3
20260904221317 56 113 0.0 2.6 0.00 0.00 0.00 69 1020.1
20260904215417 56 261 0.9 3.5 0.00 0.00 0.00 71 1020.1
20260904214417 56 195 0.9 2.6 0.00 0.00 0.00 70 1020.1
20260904213419 56 247 1.7 3.5 0.00 0.00 0.00 72 1020.1
20260904212417 57 186 1.7 4.3 0.00 0.00 0.00 71 1019.9
20260904211416 56 198 1.7 5.2 0.00 0.00 0.00 71 1020.1
20260904210418 56 228 0.9 1.7 0.00 0.00 0.00 71 1020.1
20260904205517 56 214 0.0 1.7 0.00 0.00 0.00 72 1020.1
20260904204517 56 257 0.0 0.0 0.00 0.00 0.00 73 1020.0
20260904203519 56 247 0.9 1.7 0.00 0.00 0.00 71 1019.9
20260904202517 56 260 0.0 1.7 0.00 0.00 0.00 72 1019.9
20260904201519 56 151 0.0 1.7 0.00 0.00 0.00 71 1019.8
20260904200534 56 240 1.7 4.3 0.00 0.00 0.00 70 1019.7
20260904200417 56 234 1.7 3.5 0.00 0.00 0.00 70 1019.7
20260904195420 56 183 2.6 5.2 0.00 0.00 0.00 71 1019.7
20260904193518 56 180 0.0 0.0 0.00 0.00 0.00 71 1019.7
20260904192517 56 173 2.6 4.3 0.00 0.00 0.00 70 1019.9
20260904191615 56 237 1.7 3.5 0.00 0.00 0.00 68 1019.8
20260904190618 56 175 3.5 8.7 0.00 0.00 0.00 68 1019.8
20260904185632 57 225 1.7 3.5 0.00 0.00 0.00 68 1019.7
20260904183719 56 187 0.9 2.6 0.00 0.00 0.00 69 1019.7
20260904182717 56 181 1.7 4.3 0.00 0.00 0.00 67 1019.7
20260904181717 56 163 0.9 1.7 0.00 0.00 0.00 67 1019.7
20260904175716 56 227 4.3 7.0 0.00 0.00 0.00 67 1019.7
20260904173717 55 159 2.6 4.3 0.00 0.00 0.00 69 1019.5
20260904171716 55 203 0.9 3.5 0.00 0.00 0.00 69 1019.2
20260904170717 55 229 1.7 3.5 0.00 0.00 0.00 68 1019.2
20260904165717 55 199 0.9 5.2 0.00 0.00 0.00 69 1019.2
20260904164719 54 205 0.0 0.0 0.00 0.00 0.00 69 1019.1
20260904161816 54 214 1.7 2.6 0.00 0.00 0.00 69 1018.8
20260904155816 53 150 0.9 1.7 0.00 0.00 0.00 68 1018.8
20260904153919 53 157 0.0 0.0 0.00 0.00 0.00 69 1018.7
20260904152917 53 192 0.9 1.7 0.00 0.00 0.00 70 1018.9
20260904151917 53 182 0.0 1.7 0.00 0.00 0.00 70 1018.8
20260904150917 52 165 1.7 3.5 0.00 0.00 0.00 70 1018.7
20260904145917 52 209 0.9 2.6 0.00 0.00 0.00 69 1018.7
20260904144919 52 179 1.7 3.5 0.00 0.00 0.00 68 1018.6
20260904144016 52 184 0.0 1.7 0.00 0.00 0.00 68 1018.6
20260904142016 52 178 3.5 6.1 0.00 0.00 0.00 68 1018.3
20260904141017 52 177 2.6 4.3 0.00 0.00 0.00 68 1018.4
20260904140019 52 212 0.9 1.7 0.00 0.00 0.00 67 1018.3
20260904134018 52 181 0.9 2.6 0.00 0.00 0.00 67 1018.3
20260904133017 52 170 1.7 2.6 0.00 0.00 0.00 67 1018.0
20260904132018 52 157 0.9 1.7 0.00 0.00 0.00 67 1018.0
20260904130116 52 177 3.5 5.2 0.00 0.00 0.00 67 1017.9
20260904124117 52 180 0.0 0.9 0.00 0.00 0.00 66 1017.8
20260904123116 52 167 1.7 1.7 0.00 0.00 0.00 68 1017.8
20260904122116 52 168 1.7 2.6 0.00 0.00 0.00 68 1017.8
20260904121120 52 180 2.6 3.5 0.00 0.00 0.00 67 1017.8
20260904120217 52 180 1.7 2.6 0.00 0.00 0.00 68 1017.8
20260904115219 52 180 0.0 2.6 0.00 0.00 0.00 67 1017.6
20260904114316 52 180 0.0 0.9 0.00 0.00 0.00 67 1017.8
20260904112318 52 180 0.0 0.9 0.00 0.00 0.00 65 1017.8
20260904111335 52 162 0.0 0.0 0.00 0.00 0.00 65 1017.9
20260904110317 52 163 0.0 0.9 0.00 0.00 0.00 64 1017.8
20260904105317 53 172 0.0 0.0 0.00 0.00 0.00 64 1017.7
20260904104317 53 180 0.0 0.0 0.00 0.00 0.00 63 1017.6
20260904103318 53 180 0.0 0.0 0.00 0.00 0.00 64 1017.6
20260904102415 53 180 0.0 0.0 0.00 0.00 0.00 63 1017.6
20260904101433 53 200 0.0 1.7 0.00 0.00 0.00 63 1017.4
20260904100517 53 225 0.0 0.9 0.00 0.00 0.00 64 1017.5
20260904095516 53 170 0.9 1.7 0.00 0.00 0.00 63 1017.4
20260904094518 53 225 0.0 1.7 0.00 0.00 0.00 64 1017.4
20260904092616 54 180 0.0 0.0 0.00 0.00 0.00 65 1017.5
20260904091617 54 201 0.0 0.0 0.00 0.00 0.00 64 1017.6
20260904090616 54 180 0.0 0.0 0.00 0.00 0.00 63 1017.6
20260904085616 54 173 1.7 2.6 0.00 0.00 0.00 64 1017.6
20260904084619 54 184 1.7 3.5 0.00 0.00 0.00 62 1017.6
20260904083616 54 169 1.7 2.6 0.00 0.00 0.00 63 1017.6
20260904081617 54 180 0.9 3.5 0.00 0.00 0.00 62 1017.6